Regional Weather Roundup
Issued by NWS

Home | Current Version | Previous Version | Text Only | Print | Product List | Glossary Off
Versions: 1 2 3 4 5 6 7 8 9 10 11 12 13 14 15 16 17 18 19 20 21 22 23 24 25 26 27 28 29 30 31 32 33 34 35 36 37 38 39 40 41 42 43 44 45 46 47 48 49 50

250
ASUS45 KCYS 192010
RWRWY

WYOMING REGIONAL WEATHER ROUNDUP
NATIONAL WEATHER SERVICE CHEYENNE WY
200 PM MDT THU APR 19 2018

NOTE:  "FAIR" INDICATES FEW OR NO CLOUDS BELOW 12,000 FEET
WITH NO SIGNIFICANT WEATHER AND/OR OBSTRUCTIONS TO VISIBILITY.

WYZ001-192100-
YELLOWSTONE NATIONAL PARK

CITY           SKY/WX    TMP DP  RH WIND       PRES   REMARKS
LK YELLOWSTONE   N/A     42   9  25 E6        30.06F
W YELLOWSTONE  NOT AVBL

$$
WYZ002>013-054>058-071-098>099-192100-
NORTHERN WYOMING

CITY           SKY/WX    TMP DP  RH WIND       PRES   REMARKS
JACKSON        FAIR      51  17  26 N14       29.96F
CODY           FAIR      53  19  26 E8        30.05F
GREYBULL       FAIR      55  27  34 VRB3      30.04F
WORLAND        FAIR      57  23  26 VRB3      30.03F
SHERIDAN       FAIR      59  26  28 SE21G33   30.04F
BUFFALO        FAIR      56  24  29 S16       30.10F
GILLETTE       FAIR      58  29  33 SE26G36   30.12F
HULETT         MOCLDY    59  27  29 SE7       30.17F
NEWCASTLE      FAIR      55  25  30 SE24G36   30.18F

$$
WYZ014>020-022>026-101>103-192100-
CENTRAL WYOMING

CITY           SKY/WX    TMP DP  RH WIND       PRES   REMARKS
BIG PINEY      FAIR      56   3  11 S16G22    29.96F
PINEDALE       FAIR      55  10  16 SE20G25   29.97F
DUBOIS         FAIR      46  16  29 E14G21    30.02F
LANDER         FAIR      52  22  30 VRB5      30.01F
RIVERTON       FAIR      51  23  33 CALM      30.03F
CASPER         FAIR      57  23  26 E10       30.02F
DOUGLAS        FAIR      59  22  24 SE28G41   30.07F

$$
WYZ021-027>030-104>119-192100-
SOUTHERN WYOMING

CITY           SKY/WX    TMP DP  RH WIND       PRES   REMARKS
EVANSTON       FAIR      55  10  16 E10G17    29.89F
KEMMERER       FAIR      54   3  13 E16G24    29.92F
FORT BRIDGER   FAIR      58   5  12 SE9G18    29.92F
ROCK SPRINGS   FAIR      58  -1   9 S17G26    29.93F
DIXON          FAIR      64   8  11 SW7       29.97F
RAWLINS        FAIR      61   9  12 E5        29.98F
SARATOGA       FAIR      61   3  10 S10       29.99F
LARAMIE        FAIR      53  14  21 SE35G40   30.05F
CHEYENNE       FAIR      56  17  21 S26G36    30.12F
TORRINGTON     FAIR      62  27  26 SE28G38   30.13F
PINE BLUFFS    FAIR      57  19  23 SE23G36   30.16F

$$




USA.gov is the U.S. government's official web portal to all federal, state and local government web resources and services.